Location: São Paulo
(23.5507°S, 46.6334°W)
Time: 05:48:23
(UTC-03:00)

Explorer 7 - All Passes

Search period start: 16 February 2026 00:00
Search period end: 26 February 2026 00:00
Orbit: 431 x 545 km, 50.2° (Epoch: 15 February)

Date Brightness Start Highest point End Pass type
(mag) Time Alt. Az. Time Alt. Az. Time Alt. Az.
16 Feb - 02:21:27 10° NW 02:25:33 68° SW 02:29:36 10° SE visible
16 Feb - 10:42:51 10° SSW 10:46:11 36° SE 10:49:25 10° ENE daylight
16 Feb - 12:22:55 10° WNW 12:24:16 12° NW 12:25:36 10° NNW daylight
17 Feb - 01:55:48 10° NW 01:59:56 73° SW 02:04:00 10° SE night (unlit)
17 Feb - 10:17:16 10° SSW 10:20:34 34° SE 10:23:47 10° ENE daylight
17 Feb - 11:57:03 10° W 11:58:40 13° NW 12:00:17 10° NNW daylight
18 Feb - 01:30:08 10° NW 01:34:16 78° SW 01:38:22 10° SE night (unlit)
18 Feb - 09:51:38 10° SSW 09:54:56 32° SE 09:58:06 10° ENE daylight
18 Feb - 11:31:12 10° W 11:33:03 14° NW 11:34:52 10° NNW daylight
19 Feb - 01:04:26 10° NW 01:08:35 83° SW 01:12:42 10° SE night (unlit)
19 Feb - 09:25:59 10° SSW 09:29:15 30° SE 09:32:24 10° ENE daylight
19 Feb - 11:05:20 10° W 11:07:23 15° NW 11:09:24 10° NNW daylight
20 Feb - 00:38:43 10° NW 00:42:52 88° SW 00:47:00 10° SE night (unlit)
20 Feb - 09:00:18 10° SSW 09:03:32 28° SE 09:06:39 10° ENE daylight
20 Feb - 10:39:28 10° W 10:41:42 16° NW 10:43:54 10° NNW daylight
21 Feb - 00:12:58 10° NW 00:17:06 87° NE 00:21:15 10° SE night (unlit)
21 Feb - 01:55:08 10° SW 01:55:57 10° SW 01:56:47 10° SSW night (unlit)
21 Feb - 08:34:35 10° SSW 08:37:47 27° SE 08:40:52 10° ENE daylight
21 Feb - 10:13:34 10° W 10:15:59 17° NW 10:18:20 10° NNW daylight
21 Feb - 23:47:12 10° NW 23:51:21 82° NE 23:55:28 10° SE night (unlit)
22 Feb - 01:28:56 10° SW 01:30:10 11° SW 01:31:24 10° SSW night (unlit)
22 Feb - 08:08:51 10° SSW 08:12:01 26° SE 08:15:04 10° E daylight
22 Feb - 09:47:40 10° W 09:50:14 18° NW 09:52:44 10° N daylight
22 Feb - 23:21:24 10° NW 23:25:31 77° NE 23:29:40 10° SE night (unlit)
23 Feb - 01:02:48 10° WSW 01:04:19 12° SW 01:05:52 10° SSW night (unlit)
23 Feb - 07:43:05 10° SSW 07:46:13 24° SE 07:49:13 10° E daylight
23 Feb - 09:21:45 10° WSW 09:24:27 20° NW 09:27:06 10° N daylight
23 Feb - 22:55:35 10° NW 22:59:41 71° NE 23:03:50 10° SE night (unlit)
24 Feb - 00:36:41 10° WSW 00:38:28 12° SW 00:40:14 10° SSW night (unlit)
24 Feb - 07:17:17 10° SSW 07:20:22 23° SE 07:23:20 10° E daylight
24 Feb - 08:55:48 10° WSW 08:58:39 21° NW 09:01:24 10° N daylight
24 Feb - 22:29:44 10° NNW 22:33:49 67° NE 22:37:57 10° SE night (unlit)
25 Feb - 00:10:35 10° WSW 00:12:34 13° SW 00:14:33 10° S night (unlit)
25 Feb - 06:51:28 10° SSW 06:54:30 22° SE 06:57:25 10° E daylight
25 Feb - 08:29:50 10° WSW 08:32:49 23° NW 08:35:41 10° N daylight
25 Feb - 22:03:52 10° NNW 22:07:56 62° NE 22:12:02 10° SE night (unlit)
25 Feb - 23:44:29 10° WSW 23:46:39 14° SW 23:48:49 10° S night (unlit)
